TIME,DELAY(SENSOR),PRES,OXYGEN,RAWTEMP,T(OPTODE),TCPHASE,FLUOR,BETA(BETA700),BETA(BETA412),BETA(BETA440),CDOM,C(CSC),ED(ED412.40),ED(ED444.00),ED(ED489.70),ED(ED554.30),LU(LU411.80),LU(LU443.40),LU(LU489.60),LU(LU554.10),COMP,TILTX,TILTY,CHECK
1366602648,5811,839.0499877929688000,43.1542015075683600,655.2791748046875000,4.7832641601562500,54.4724693298339840,53,100,91,79,79,14810,2147755876,2147424338,2148006656,2147876406,2147633993,2147055222,2148255131,2147195163,3286,4,13,24524
1366606244,5807,895.1400146484375000,44.8903198242187500,660.2352294921875000,4.6202301979064940,54.2733497619628900,53,102,86,79,80,14808,2147755702,2147426240,2148009581,2147878336,2147636233,2147055305,2148264283,2147198390,578,4,13,26790
1366609844,5809,896.2700195312500000,44.6440200805664060,660.4860229492188000,4.6119728088378910,54.3145408630371100,53,99,87,80,81,14807,2147753664,2147425590,2148006107,2147876470,2147638262,2147056969,2148257444,2147192713,101,4,13,3035
1366613444,5809,919.8800048828125000,45.7223205566406250,663.6848144531250000,4.5065860748291020,54.1959190368652340,52,100,89,79,80,14806,2147755291,2147423414,2148009618,2147871277,2147641261,2147054646,2148257856,2147194925,388,4,13,25588
1366617044,5811,928.8499755859375000,46.6319503784179700,665.1765747070312000,4.4574007987976070,54.0870590209960940,53,97,87,79,79,14808,2147757906,2147426038,2148008338,2147875995,2147638628,2147062052,2148258020,2147198838,3099,4,13,43254
1366620644,5808,930.1400146484375000,46.3832015991210940,666.0548706054688000,4.4284310340881350,54.1288108825683600,53,97,85,78,80,14805,2147756187,2147424685,2148009792,2147875958,2147638637,2147059638,2148256320,2147194688,174,4,13,22446
1366624244,5807,956.0499877929688000,47.2175483703613300,668.3679809570312000,4.3520951271057130,54.0360107421875000,53,98,89,79,81,14808,2147754541,2147425609,2148007853,2147875876,2147640329,2147059520,2148259154,2147196141,102,4,13,220
1366627844,5807,961.0900268554688000,47.5032882690429700,668.9077148437500000,4.3342738151550290,54.0057411193847660,52,99,87,78,81,14805,2147760155,2147424155,2148008393,2147876004,2147639844,2147052946,2148257170,2147198464,3421,4,13,4397
1366631444,5808,957.1500244140625000,47.5886993408203100,669.7542724609375000,4.3063130378723145,54.0063285827636700,53,99,87,78,79,14808,2147755529,2147425600,2148009408,2147878198,2147641993,2147056868,2148260361,2147195218,327,4,13,27245
1366635044,5811,984.8099975585938000,48.2869606018066400,671.5065917968750000,4.2484169006347660,53.9245300292968750,53,97,89,78,80,14805,2147756681,2147427145,2148008182,2147877193,2147641042,2147061586,2148258998,2147196699,3395,4,13,33660
1366638644,5811,990.0000000000000000,48.2424011230468750,671.6693725585938000,4.2430357933044430,53.9339485168457000,52,98,86,78,80,14807,2147757275,2147423369,2148013741,2147877394,2147638866,2147060397,2148258166,2147199597,576,4,13,20221
1366642244,5811,987.7399902343750000,48.1035194396972660,672.1196289062500000,4.2281532287597660,53.9635810852050800,52,99,85,79,80,14806,2147756544,2147423808,2148006317,2147878893,2147638802,2147059629,2148256018,2147195364,465,4,13,44531
1366645844,5807,992.2299804687500000,48.0638694763183600,671.9304199218750000,4.2344069480896000,53.9614295959472660,53,96,87,79,80,14807,2147757037,2147424557,2148013312,2147875712,2147640073,2147058267,2148259638,2147196507,396,4,13,53798
1366649444,5808,984.9500122070312000,48.3721084594726560,672.5601806640625000,4.2135868072509770,53.9265098571777340,53,98,85,78,80,14804,2147754313,2147425344,2148010102,2147878052,2147637659,2147057133,2148262701,2147195648,786,4,13,11819
1366653044,5807,987.2100219726562000,48.3651084899902340,673.0031738281250000,4.1989398002624510,53.9324913024902340,51,99,89,79,79,14805,2147758582,2147424612,2148014427,2147875364,2147638848,2147053394,2148260873,2147194761,3107,4,13,42062
1366656644,5806,991.5700073242188000,48.0204582214355500,672.3978271484375000,4.2189579010009770,53.9755897521972660,53,96,87,79,82,14803,2147756068,2147425051,2148008228,2147876242,2147641682,2147055268,2148266057,2147197339,90,4,13,51279
1366660244,5807,996.0499877929688000,48.5759086608886700,672.0567016601562000,4.2302317619323730,53.8936691284179700,53,98,86,79,79,14802,2147754002,2147423963,2148012306,2147875876,2147640941,2147054802,2148262326,2147197750,3341,4,13,13573
1366663844,5813,1001.0399780273438000,47.8107490539550800,671.2713012695312000,4.2561931610107420,53.9889488220214840,52,98,88,79,80,14746,2147756580,2147424832,2148011986,2147877531,2147639460,2147056000,2148258258,2147193673,267,4,13,43632
1366667444,5809,990.6599731445312000,47.7158699035644500,672.0263061523438000,4.2312369346618650,54.0115814208984400,52,97,93,79,81,14799,2147755712,2147424804,2148010267,2147875474,2147639497,2147053321,2148263890,2147198546,758,4,13,21454
1366671044,5810,991.1900024414062000,48.4602394104003900,672.7453002929688000,4.2074680328369140,53.9222908020019500,52,98,85,79,80,14798,2147754697,2147427840,2148011492,2147874166,2147637732,2147055606,2148258697,2147195913,3531,4,13,24383
1366674644,5806,990.8400268554688000,48.8064002990722660,673.0303955078125000,4.1980400085449220,53.8727607727050800,52,98,88,78,80,14798,2147757769,2147428205,2148012818,2147876498,2147638336,2147053906,2148255433,2147195620,3319,4,13,6074
1366678244,5811,994.5599975585938000,48.8497886657714840,672.9174804687500000,4.2017707824707030,53.8670501708984400,52,97,86,110,80,14796,2147757220,2147426221,2148004909,2147872466,2147637348,2147056164,2148263360,2147198116,3326,4,13,16833
1366681844,5810,993.1199951171875000,48.7874298095703100,673.3518066406250000,4.1874117851257320,53.8791389465332000,53,98,86,79,80,14793,2147753051,2147422573,2148008219,2147875328,2147641764,2147055067,2148262692,2147196480,437,4,13,21889
1366685444,5807,987.8200073242188000,48.7990303039550800,673.4304199218750000,4.1848130226135250,53.8809089660644500,52,98,87,80,80,14795,2147753618,2147425627,2148008128,2147870793,2147642084,2147059529,2148260982,2147197750,3378,4,13,49494
1366689044,5811,991.5200195312500000,49.4513816833496100,673.8378295898438000,4.1713390350341800,53.7923088073730500,53,97,86,79,80,14795,2147753408,2147423195,2148010971,2147876096,2147641856,2147058697,2148261421,2147197540,720,4,13,45707
1366692644,5811,989.2800292968750000,48.7160415649414060,673.6292114257812000,4.1782379150390625,53.8923988342285160,53,96,90,79,80,14789,2147759844,2147426788,2148009554,2147875904,2147641398,2147055670,2148261284,2147196425,173,4,13,35967
1366696244,5809,987.2199707031250000,48.9551391601562500,674.2009277343750000,4.1593270301818850,53.8659896850585940,52,98,94,78,81,14794,2147755474,2147426816,2148009764,2147872649,2147638482,2147055698,2148261101,2147195867,331,4,13,32636
1366699844,5810,993.6599731445312000,48.7239608764648440,673.3519897460938000,4.1874051094055180,53.8937416076660160,53,99,85,79,81,14792,2147754441,2147425124,2148007469,2147873837,2147640740,2147057462,2148262601,2147199186,3453,4,13,32937
1366703444,5807,999.2500000000000000,48.2770195007324200,671.7603149414062000,4.2400321960449220,53.9347496032714840,53,99,89,78,82,14789,2147754989,2147426240,2148011456,2147876086,2147639488,2147055076,2148262582,2147199314,3402,4,13,38872
1366707044,5809,994.2000122070312000,48.0981788635253900,672.0933227539062000,4.2290248870849610,53.9611015319824200,52,99,89,79,80,14786,2147755712,2147426139,2148013019,2147876699,2147639268,2147057408,2148253787,2147194514,642,4,13,12166
1366710644,5808,1002.1900024414062000,48.2877197265625000,671.5681762695312000,4.2463822364807130,53.9308586120605500,53,99,86,80,81,14793,2147758537,2147423122,2148011318,2147875840,2147639168,2147055021,2148259446,2147196489,3178,4,13,55108
1366714244,5807,1001.2999877929688000,48.5102081298828100,672.0283813476562000,4.2311692237854000,53.9024391174316400,52,99,89,78,80,14788,2147758162,2147423917,2148006820,2147876397,2147642825,2147052754,2148259373,2147198345,255,4,13,8173
1366717844,5807,1000.7299804687500000,48.3262405395507800,672.1785888671875000,4.2262020111083980,53.9314384460449200,52,101,86,78,80,14785,2147754532,2147426368,2148010496,2147874112,2147639853,2147053741,2148256246,2147198518,3530,4,13,49098
1366721444,5810,997.7800292968750000,47.2355499267578100,672.5476074218750000,4.2140049934387210,54.0851097106933600,52,278,84,79,81,14784,2147751661,2147426550,2148011492,2147877760,2147643090,2147060086,2148257709,2147195638,3139,4,13,17339
1366725044,5807,1000.4799804687500000,48.2886009216308600,672.2490234375000000,4.2238769531250000,53.9394493103027340,53,97,87,77,80,14785,2147756068,2147421933,2148009627,2147873408,2147641197,2147056758,2148260233,2147199826,326,4,13,3613
1366728644,5809,990.6699829101562000,48.2777214050293000,673.6522216796875000,4.1774768829345700,53.9548683166503900,51,102,87,79,80,14782,2147755794,2147427721,2148009490,2147873993,2147639570,2147052598,2148265078,2147194157,3115,4,13,15201
1366732244,5807,998.3200073242188000,49.1796417236328100,673.2529907226562000,4.1906781196594240,53.8279609680175800,53,99,82,77,80,14783,2147758509,2147427766,2148010240,2147874861,2147641206,2147055817,2148263442,2147200246,152,4,13,18315
1366735844,5810,998.3800048828125000,49.3789787292480500,673.6036987304688000,4.1790809631347660,53.8033294677734400,52,98,86,81,81,14784,2147755172,2147426697,2148012251,2147875620,2147638034,2147057508,2148269513,2147198153,3325,4,13,21252
1366739444,5808,1010.3699951171875000,49.3533096313476560,673.1951293945312000,4.1925930976867680,53.7964401245117200,52,100,83,80,80,14781,2147756086,2147427090,2148009417,2147873883,2147641417,2147056228,2148262637,2147196260,405,4,13,52225
1366743044,5811,998.8800048828125000,47.7047691345214840,672.2725830078125000,4.2230949401855470,54.0177993774414060,52,98,86,80,82,14782,2147756361,2147425078,2148009600,2147875693,2147641362,2147054701,2148264100,2147197494,193,4,13,16930
1366746644,5805,1003.0000000000000000,47.5652999877929700,672.6217041015625000,4.2115540504455570,54.0438995361328100,53,100,88,78,80,14781,2147757622,2147425581,2148013613,2147873709,2147641472,2147052781,2148259949,2147194084,3513,4,13,46923
1366747855,5806,1006.0999755859375000,47.6660499572753900,672.4144897460938000,4.2184047698974610,54.0251617431640600,52,98,86,78,80,14790,2147756370,2147419465,2148010212,2147871707,2147643273,2147051702,2148265024,2147198930,304,4,13,2896
